Weather reports worldwide

Advertisment
Glenanne, United Kingdom (3923): temperature & dewpoint: 11.10.2018 07:00:00 - 17.10.2018 07:00:00 (BST)Glenanne, United Kingdom (3923): temperature -100cm: 11.10.2018 07:00:00 - 17.10.2018 07:00:00 (BST)Glenanne, United Kingdom (3923): wind speed & gusts: 11.10.2018 07:00:00 - 17.10.2018 07:00:00 (BST)Glenanne, United Kingdom (3923): wind direction: 11.10.2018 07:00:00 - 17.10.2018 07:00:00 (BST)Glenanne, United Kingdom (3923): reduced air pressure: 11.10.2018 07:00:00 - 17.10.2018 07:00:00 (BST)Glenanne, United Kingdom (3923): visibility: 11.10.2018 07:00:00 - 17.10.2018 07:00:00 (BST)Glenanne, United Kingdom (3923): precipitation: 11.10.2018 07:00:00 - 17.10.2018 07:00:00 (BST)
Date & Time tt [°C] td [°C] tt -100cm [°C] ff [km/h] ff [kn] fx [km/h] fx [kn] dd ppp [hPa] vv [km] rr [mm]
17.10.2018 07:00:00 9,2 8,6 - 8 4 - - WSW 1014,6 16 0,0
17.10.2018 06:00:00 9,1 8,8 - 8 4 - - WSW 1014,0 11 0,0
17.10.2018 05:00:00 8,9 8,6 - 9 5 - - WSW 1013,5 11 0,0
17.10.2018 04:00:00 9,1 8,7 - 9 5 - - WSW 1012,9 13 0,0
17.10.2018 03:00:00 9,3 8,7 - 11 6 - - SW 1012,7 13 0,0
17.10.2018 02:00:00 8,5 7,7 - 8 4 - - WSW 1012,4 15 0,0
17.10.2018 01:00:00 9,3 8,3 - 11 6 - - WSW 1011,8 17 0,0
17.10.2018 00:00:00 9,4 8,4 - 11 6 - - WSW 1011,2 13 0,0
16.10.2018 23:00:00 9,2 8,1 - 15 8 - - SW 1010,8 12 0,0
16.10.2018 22:00:00 9,5 8,1 - 16 9 - - SW 1010,5 14 0,0
16.10.2018 21:00:00 9,4 8,2 - 13 7 - - SW 1010,2 - 0,0
16.10.2018 20:00:00 9,5 7,8 - 11 6 - - SW 1009,8 15 0,0
16.10.2018 19:00:00 10,3 7,5 - 9 5 - - WSW 1009,4 19 0,0
16.10.2018 18:00:00 11,9 7,7 - 13 7 - - WSW 1008,7 24 0,0
16.10.2018 17:00:00 13,6 8,7 - 15 8 - - WSW 1008,2 27 0,0
16.10.2018 16:00:00 13,0 10,8 - 16 9 - - SW 1008,2 27 0,0
16.10.2018 15:00:00 11,9 10,9 - 21 11 - - SW 1008,3 13 0,2
16.10.2018 14:00:00 11,7 11,1 - 21 11 - - SW 1008,1 4,3 0,0
16.10.2018 13:00:00 11,3 10,5 - 18 10 - - SSW 1008,1 27 0,0
16.10.2018 12:00:00 10,1 9,6 - 18 10 - - SSW 1008,0 4,0 0,2
16.10.2018 11:00:00 10,5 9,3 - 22 12 - - SSW 1007,7 40 0,2
16.10.2018 10:00:00 9,3 8,4 12,0 21 11 - - SSW 1008,2 10 0,0
16.10.2018 09:00:00 8,5 7,8 - 22 12 - - SSW 1008,3 28 0,0
16.10.2018 08:00:00 7,8 7,3 - 28 15 - - SSW 1008,2 17 0,0
16.10.2018 07:00:00 8,6 7,9 - 21 11 - - SSW 1008,8 11 0,0
16.10.2018 06:00:00 9,1 8,1 - 16 9 - - SSW 1009,0 18 0,0
16.10.2018 05:00:00 8,9 7,8 - 16 9 - - S 1009,4 17 0,0
16.10.2018 04:00:00 9,2 8,3 - 22 12 - - S 1009,6 16 0,0
16.10.2018 03:00:00 9,4 8,3 - 21 11 - - S 1010,3 19 0,0
16.10.2018 02:00:00 8,9 7,9 - 22 12 - - SSW 1011,3 30 0,0
16.10.2018 01:00:00 7,4 6,4 - 13 7 - - SSW 1011,5 45 0,0
16.10.2018 00:00:00 6,8 5,4 - 13 7 - - SSW 1012,5 50 0,0
15.10.2018 23:00:00 7,1 5,5 - 13 7 - - SSW 1013,1 40 0,0
15.10.2018 22:00:00 7,2 5,3 - 13 7 - - SSW 1013,7 50 0,0
15.10.2018 21:00:00 6,9 4,9 - 16 9 - - S 1013,8 40 0,0
15.10.2018 20:00:00 6,3 4,9 - 13 7 - - S 1013,7 50 0,0
15.10.2018 19:00:00 5,9 2,7 - 9 5 - - S 1014,3 40 0,0
15.10.2018 18:00:00 9,2 4,5 - 11 6 - - S 1014,0 50 0,0
15.10.2018 17:00:00 10,5 5,1 - 11 6 - - S 1013,8 45 0,0
15.10.2018 16:00:00 12,2 4,7 - 11 6 - - SSE 1013,9 29 0,0
15.10.2018 15:00:00 13,3 5,2 - 9 5 - - ESE 1014,1 40 0,0
15.10.2018 14:00:00 12,7 4,0 - 4 2 - - ENE 1014,7 40 0,0
15.10.2018 13:00:00 12,4 4,2 - 5 3 - - S 1015,1 50 0,0
15.10.2018 12:00:00 12,1 4,6 - 5 3 - - E 1015,2 40 0,0
15.10.2018 11:00:00 10,9 5,0 - 5 3 - - SE 1015,1 35 0,0
15.10.2018 10:00:00 9,5 3,7 12,2 2 1 - - NE 1015,1 45 0,0
15.10.2018 09:00:00 4,6 2,2 - 2 1 - - WNW 1014,9 50 0,0
15.10.2018 08:00:00 5,5 2,3 - 4 2 - - W 1014,5 50 0,0
15.10.2018 07:00:00 6,4 3,3 - 5 3 - - W 1013,9 40 0,0
15.10.2018 06:00:00 6,1 3,8 - 5 3 - - S 1013,3 50 0,0
15.10.2018 05:00:00 6,5 4,0 - 5 3 - - SSW 1013,2 50 0,0
15.10.2018 04:00:00 6,0 3,7 - 5 3 - - S 1013,2 50 0,0
15.10.2018 03:00:00 7,6 3,7 - 8 4 - - W 1013,0 50 0,0
15.10.2018 02:00:00 5,8 3,7 - 9 5 - - SSW 1013,0 50 0,0
15.10.2018 01:00:00 7,0 3,9 - 8 4 - - W 1012,6 45 0,0
15.10.2018 00:00:00 6,6 3,8 - 8 4 - - W 1012,3 45 0,0
14.10.2018 23:00:00 4,6 2,1 - 8 4 - - SSW 1012,3 40 0,0
14.10.2018 22:00:00 5,7 3,2 - 8 4 - - SW 1011,8 50 0,0
14.10.2018 21:00:00 6,6 3,8 - 5 3 - - WSW 1011,4 40 0,0
14.10.2018 20:00:00 6,8 3,7 - 8 4 - - SSW 1010,9 45 0,0
14.10.2018 19:00:00 7,6 3,0 - 4 2 - - SW 1010,3 45 0,0
14.10.2018 18:00:00 9,5 3,2 - 4 2 - - SSW 1009,6 50 0,0
14.10.2018 17:00:00 11,0 3,9 - 4 2 - - SSW 1009,1 40 0,0
14.10.2018 16:00:00 11,9 3,2 - 5 3 - - SSW 1008,9 45 0,0
14.10.2018 15:00:00 11,5 2,1 - 8 4 - - SW 1008,8 50 0,0
14.10.2018 14:00:00 11,3 2,8 - 8 4 - - S 1008,7 50 0,0
14.10.2018 13:00:00 11,5 3,8 - 4 2 - - N 1008,7 35 0,0
14.10.2018 12:00:00 9,7 5,0 - 8 4 - - NNW 1008,8 35 0,0
14.10.2018 11:00:00 8,8 5,2 - 13 7 - - NW 1008,9 30 0,0
14.10.2018 10:00:00 6,3 4,1 12,2 8 4 - - NW 1009,0 45 0,0
14.10.2018 09:00:00 5,4 4,5 - 8 4 - - W 1008,7 40 0,0
14.10.2018 08:00:00 5,7 4,5 - 8 4 - - WSW 1008,1 50 0,0
14.10.2018 07:00:00 6,4 5,0 - 8 4 - - WNW 1007,2 40 0,0
14.10.2018 06:00:00 6,3 5,2 - 8 4 - - WNW 1007,2 50 0,0
14.10.2018 05:00:00 6,5 5,5 - 5 3 - - WNW 1007,0 35 0,0
14.10.2018 04:00:00 7,0 5,7 - 5 3 - - W 1006,2 40 0,0
14.10.2018 03:00:00 7,6 6,4 - 8 4 - - WNW 1005,7 30 0,0
14.10.2018 02:00:00 7,8 6,5 - 13 7 - - NW 1004,7 35 0,0
14.10.2018 01:00:00 8,0 7,0 - 15 8 - - NW 1004,2 40 0,0
14.10.2018 00:00:00 8,2 7,6 - 16 9 - - NW 1002,7 50 0,0
13.10.2018 23:00:00 8,4 8,0 - 16 9 - - NW 1001,8 40 0,0
13.10.2018 22:00:00 8,6 8,2 - 18 10 - - NNW 1000,6 19 0,0
13.10.2018 21:00:00 8,2 7,6 - 18 10 - - NNW 999,7 9 0,4
13.10.2018 20:00:00 8,8 8,2 - 22 12 - - NNW 998,1 10 0,6
13.10.2018 19:00:00 10,0 9,4 - 11 6 - - NNW 996,6 9 0,0
13.10.2018 18:00:00 10,7 9,9 - 16 9 - - N 994,3 50 0,0
13.10.2018 17:00:00 11,4 10,9 - 9 5 - - NW 993,8 30 0,4
13.10.2018 16:00:00 11,0 10,7 - 8 4 - - NNW 993,6 6 1,6
13.10.2018 15:00:00 10,7 10,4 - 8 4 - - N 993,6 5 1,4
13.10.2018 14:00:00 10,7 9,9 - 4 2 - - N 994,5 4,7 1,4
13.10.2018 13:00:00 11,4 10,6 - 5 3 - - SW 995,1 4,9 0,4
13.10.2018 12:00:00 11,9 11,5 - 8 4 - - SW 995,9 11 0,6
13.10.2018 11:00:00 12,3 12,0 - 8 4 - - S 996,4 28 1,0
13.10.2018 10:00:00 12,1 12,0 12,2 8 4 - - SSW 997,0 14 0,8
13.10.2018 09:00:00 11,7 11,5 - 5 3 - - S 997,4 12 2,2
13.10.2018 08:00:00 11,4 11,2 - 8 4 - - SE 997,6 6 0,8
13.10.2018 07:00:00 11,1 10,8 - 5 3 - - SSW 998,3 16 0,4
13.10.2018 06:00:00 10,5 9,9 - 11 6 - - SSE 998,7 12 0,2
13.10.2018 05:00:00 10,4 9,6 - 8 4 - - SSE 999,2 40 0,0
13.10.2018 04:00:00 9,9 9,2 - 8 4 - - S 1000,0 28 0,0
13.10.2018 03:00:00 10,3 9,4 - 8 4 - - SSE 999,8 28 0,0
13.10.2018 02:00:00 10,1 9,0 - 15 8 - - SSW 999,7 35 0,0
13.10.2018 01:00:00 10,2 9,2 - 11 6 - - SW 999,4 30 0,0
13.10.2018 00:00:00 10,3 9,3 - 15 8 - - SW 999,2 30 0,0
12.10.2018 23:00:00 10,2 9,2 - 18 10 - - SW 997,9 45 0,0
12.10.2018 22:00:00 10,6 9,6 - 22 12 - - SW 996,9 50 0,0
12.10.2018 21:00:00 10,7 9,8 - 22 12 - - SW 995,7 45 0,0
12.10.2018 20:00:00 11,0 10,0 - 24 13 - - SSW 994,3 50 0,0
12.10.2018 19:00:00 11,4 10,2 - 29 16 48 26 SSW 992,7 45 0,0
12.10.2018 18:00:00 11,1 10,3 - 24 13 - - SSW 991,4 50 0,2
12.10.2018 17:00:00 11,1 10,1 - 24 13 - - SSW 990,3 18 0,2
12.10.2018 16:00:00 11,0 10,4 - 29 16 50 27 SSW 989,5 12 0,0
12.10.2018 15:00:00 11,0 10,5 - 31 17 48 26 SSW 988,6 12 1,6
12.10.2018 14:00:00 10,5 10,1 - 29 16 59 32 SSW 988,7 9 3,2
12.10.2018 13:00:00 10,7 9,0 - 39 21 76 41 SSW 988,9 8 1,2
12.10.2018 12:00:00 14,0 9,8 - 44 24 67 36 SSW 988,3 13 0,0
12.10.2018 11:00:00 13,5 9,2 - 46 25 70 38 SSW 988,0 13 0,0
12.10.2018 10:00:00 13,1 9,2 12,2 44 24 70 38 SSW 987,7 13 0,0
12.10.2018 09:00:00 12,0 8,7 - 37 20 59 32 SSW 987,5 15 0,0
12.10.2018 08:00:00 12,1 8,9 - 39 21 68 37 SSW 986,8 19 0,0
12.10.2018 07:00:00 12,1 9,2 - 39 21 93 50 SSW 985,4 40 0,4
12.10.2018 06:00:00 12,8 11,8 - 52 28 83 45 S 983,7 20 0,2
12.10.2018 05:00:00 11,3 10,9 - 55 30 96 52 S 984,0 9 2,4
12.10.2018 04:00:00 11,2 10,3 - 50 27 81 44 S 985,7 3,5 3,6
12.10.2018 03:00:00 11,1 10,0 - 41 22 76 41 S 988,9 11 1,2
12.10.2018 02:00:00 11,8 9,6 - 46 25 72 39 S 991,7 19 0,0
12.10.2018 01:00:00 11,2 9,6 - 29 16 48 26 S 993,7 20 0,0
12.10.2018 00:00:00 9,8 8,6 - 21 11 - - S 995,3 17 0,0
11.10.2018 23:00:00 9,4 7,8 - 22 12 - - S 997,3 30 0,0
11.10.2018 22:00:00 9,6 8,3 - 21 11 - - S 997,6 25 0,0
11.10.2018 21:00:00 9,6 8,9 - 16 9 - - S 998,2 27 0,0
11.10.2018 20:00:00 9,9 8,6 - 15 8 - - S 997,7 28 0,0
11.10.2018 19:00:00 10,2 8,0 - 13 7 - - S 997,2 40 0,0
11.10.2018 18:00:00 11,4 8,8 - 13 7 - - S 996,5 35 0,0
11.10.2018 17:00:00 11,9 9,2 - 15 8 - - SSW 996,1 45 0,0
11.10.2018 16:00:00 11,1 8,4 - 15 8 - - SSW 995,5 45 0,0
11.10.2018 15:00:00 10,9 8,1 - 15 8 - - WSW 995,1 50 0,0
11.10.2018 14:00:00 11,4 8,8 - 13 7 - - W 993,7 30 0,2
11.10.2018 13:00:00 11,3 9,6 - 16 9 46 25 WSW 992,8 23 0,4
11.10.2018 12:00:00 13,7 12,4 - 26 14 46 25 S 991,6 14 0,0
11.10.2018 11:00:00 14,2 12,2 - 26 14 48 26 S 992,0 17 0,0
11.10.2018 10:00:00 13,7 12,4 12,2 31 17 46 25 S 992,6 14 0,0
11.10.2018 09:00:00 13,8 12,6 - 28 15 54 29 S 992,9 13 0,0
11.10.2018 08:00:00 14,1 12,7 - 34 18 54 29 S 993,0 15 0,0
11.10.2018 07:00:00 14,1 12,8 - 28 15 46 25 S 993,2 13 0,0

tt = temperature
td = dewpoint
tt -100cm = temperature -100cm
ff = wind speed
fx = gusts
dd = wind direction
ppp = reduced air pressure
vv = visibility
rr = precipitation

Next stations